Regional Weather Roundup
Issued by NWS

Home | Current Version | Previous Version | Graphics & Text | Print | Product List | Glossary On
Versions: 1 2 3 4 5 6 7 8 9 10 11 12 13 14 15 16 17 18 19 20 21 22 23 24 25 26 27 28 29 30 31 32 33 34 35 36 37 38 39 40 41 42 43 44 45 46 47 48 49 50
000
ASUS44 KMEG 260800
RWRTN
TENNESSEE HOURLY STATE WEATHER ROUNDUP
NATIONAL WEATHER SERVICE MEMPHIS TN
200 AM CST MON JAN 26 2015

TNZ002-004-019-021-049-052-054-088>092-260900-
WEST TENNESSEE

CITY           SKY/WX    TMP DP  RH WIND       PRES   REMARKS
MEMPHIS INTL   CLOUDY    42  33  70 NW14G25   29.98R
NWS MEMPHIS      N/A     41 N/A N/A MISG        N/A
JACKSON        CLOUDY    38  33  82 N20G25    29.94R WCI  28
DYERSBURG      CLOUDY    37  23  56 N13G26    29.99R WCI  29
UNION CITY     CLOUDY    34  34 100 NW18      29.94R WCI  23
PARIS          CLOUDY    34  30  86 N15       29.91R WCI  24
LEXINGTON      CLOUDY    37  34  87 N15       29.87R WCI  28
SAVANNAH       CLOUDY    39  36  87 N15       29.89R WCI  31
$$

TNZ008-025-027-028-033-062-065-066-260900-
NORTH MIDDLE TENNESSEE

CITY           SKY/WX    TMP DP  RH WIND       PRES   REMARKS
NASHVILLE      CLOUDY    40  37  89 NW17G29   29.80R WCI  31
CLARKSVILLE    CLOUDY    35  32  88 NW21G26   29.86R WCI  24
COOKEVILLE     CLOUDY    39  39 100 NW6       29.71S WCI  35
CROSSVILLE     LGT RAIN  39  35  86 W12G18    29.69R WCI  32
$$

TNZ061-075-076-078-094-096-097-260900-
SOUTH MIDDLE TENNESSEE

CITY           SKY/WX    TMP DP  RH WIND       PRES   REMARKS
FAYETTEVILLE   CLOUDY    39  39 100 MISG      29.77R
TULLAHOMA      CLOUDY    39  39 100 NW12      29.76R WCI  32
WINCHESTER     CLOUDY    41  41 100 VRB7      29.76R
SHELBYVILLE    CLOUDY    43  43 100 NW18      29.78R
$$

TNZ017-018-042-046-047-260900-
NORTHEAST TENNESSEE

CITY           SKY/WX    TMP DP  RH WIND       PRES   REMARKS
TRI CITIES     CLOUDY    41  38  89 W5        29.64S
ELIZABETHTON   CLOUDY    39  36  87 CALM      29.64S
$$

TNZ012-013-036-069-073-074-260900-
CENTRAL EAST TENNESSEE

CITY           SKY/WX    TMP DP  RH WIND       PRES   REMARKS
KNOXVILLE      LGT RAIN  43  41  93 W21       29.68R
OAK RIDGE      CLOUDY    41  37  86 W8        29.69S
GATLINBURG     CLOUDY    43  39  87 SW8       29.65F
$$

TNZ083-085-099-260900-
SOUTHEAST TENNESSEE

CITY           SKY/WX    TMP DP  RH WIND       PRES   REMARKS
CHATTANOOGA    CLOUDY    47  39  74 W8        29.73R
$$

SKY/WX REPORTED AS FAIR MEANS FEW OR NO CLOUDS BELOW
12 THOUSAND FEET.



USA.gov is the U.S. government's official web portal to all federal, state and local government web resources and services.